Location: Voyageurs National Park
(48.5020°N, 92.9292°W)
Time: 21:28:54
(UTC-06:00)

Cosmos 1484 Rocket - Pass Details

Date: 19 January 2018
Orbit: 507 x 561 km, 97.3° (Epoch: 17 February)

Event Time Altitude Azimuth Distance (km) Brightness Sun altitude
Rises 07:06:27 0° 4° (N) 2,626 6.1 -8.1°
Reaches altitude 10° 07:08:40 10° 355° (N) 1,736 5.1 -7.8°
Maximum altitude 07:12:02 33° 291° (WNW) 869 3.3 -7.2°
Drops below altitude 10° 07:15:25 10° 226° (SW) 1,734 5.1 -6.7°
Sets 07:17:38 0° 216° (SW) 2,622 6.1 -6.4°
